Погода в Гамильтоне

Новая Зеландия     37°47′31″S   175°17′15″E
темп.,
°C
ветер,
м/с
пор.,
м/с
влажн.,
%
обл.,
%
осадки,
мм/ч
давл.,
гПа
погр.,
м
28 февраля, вс
вс2801:00+13вюв119471 0.0 101723
04:00+13ююв2295100 0.0 101724
07:00+12юв119570 0.0 101623
10:00+19в2374100 0.0 1017369
13:00+23всв345385 0.2 10161403
16:00+24св345081 0.2 10141598
19:00+22св355978 0.2 1014280
22:00+15ссв348310 0.0 101671
1 марта, пн
пн101:00+14всв128955 0.0 101527
04:00+14вюв1190100 0.0 101523
07:00+13в1294100 0.0 101423
10:00+20всв366899 0.0 1014682
13:00+25св454599 0.1 10131782
16:00+22ссв3562100 0.3 1012929
19:00+19с368788 1.8 1011223
22:00+16ссз2695100 1.4 1013218
2 марта, вт
вт201:00+15всв129696 1.5 101225
04:00+13в129576 0.0 101123
07:00+13в129673 0.0 101123
10:00+19св23848 0.0 1012430
13:00+24ссз345842 0.2 10101322
16:00+23зсз347659 2.5 1008997
19:00+21сз248675 4.9 1008144
22:00+17ссз2294100 0.0 101029
3 марта, ср
ср301:00+15с229791 0.0 100932
04:00+15с1298100 0.0 100829
07:00+15ссв1299100 0.1 100835
10:00+19с3593100 0.0 1008426
13:00+23сз5872100 1.6 10081469
16:00+24зсз6757100 0.5 10061419
19:00+21зсз3573100 0.5 1006725
22:00+16зсз229595 0.0 100723
4 марта, чт
чт401:00+15ссз119781 0.1 100723
04:00+16св129999 0.1 100556
07:00+16всв129999 0.4 100483
10:00+17юв1198100 3.9 1003108
13:00+17св2496100 11.9 1002251
16:00+18вюв2394100 2.7 1000270
19:00+19сз139297 4.4 999427
22:00+15зюз2397100 1.1 100171